Weather in Nicosia

Cyprus     35°10′11″N   33°21′34″E
temp.,
°C
wind,
m/s
gust,
m/s
humid.,
%
clouds,
%
prec.,
mm/h
press.,
hPa
HPBL,
m
11 april, sun
sun1100:00+9wnw33475 0.0 1013240
03:00+9wnw45500 0.0 1013324
06:00+9w44545 0.0 1014355
09:00+12w124752 0.0 10151156
12:00+14ene444061 0.0 10161591
15:00+14e544183 0.0 10171592
18:00+14se554629 0.0 10171230
21:00+10se34615 0.0 101993
12 april, mon
mon1200:00+9s11631 0.0 101953
03:00+8wsw22673 0.0 101938
06:00+8sw22725 0.0 101938
09:00+13sw115272 0.0 1020499
12:00+15n234239 0.1 10191843
15:00+15ene434735 0.3 10191132
18:00+14nnw22473 0.1 10191183
21:00+11nw11622 0.1 1020186
13 april, tue
tue1300:00+10sw22674 0.0 1020118
03:00+10wsw23730 0.0 101985
06:00+10wsw34665 0.0 1019147
09:00+14w33540 0.0 1020821
12:00+17nw43443 0.0 10191420
15:00+17nnw44472 0.0 10191166
18:00+16nw44522 0.0 1019874
21:00+13wnw33690 0.0 1020164
14 april, wed
wed1400:00+12w33731 0.0 1020148
03:00+11wsw22790 0.0 1019122
06:00+10ssw1181100 0.0 101970
09:00+15se225899 0.0 1020402
12:00+18nne2145100 0.0 10201047
15:00+19n324871 0.0 1018998
18:00+17nne33555 0.0 1018480
21:00+13nnw11732 0.0 101965
15 april, thu
thu1500:00+12sw11764 0.0 101844
03:00+12ese117835 0.0 101730
06:00+12se2278100 0.0 101731
09:00+16ese2359100 0.0 1017309
12:00+20nne214997 0.0 1017816
15:00+20nnw43515 0.0 1016809
18:00+19nw33500 0.0 1016443
21:00+15w23630 0.0 101638